Stations météo

Publicité
Gourette, France (7775): Température de l'air & dewpoint: 12.02.2020 09:00:00 - 18.02.2020 09:00:00 (CET)Gourette, France (7775): Vitesse du vent & gusts: 12.02.2020 09:00:00 - 18.02.2020 09:00:00 (CET)Gourette, France (7775): Direction du vent: 12.02.2020 09:00:00 - 18.02.2020 09:00:00 (CET)Gourette, France (7775): reduced air pressure: 12.02.2020 09:00:00 - 18.02.2020 09:00:00 (CET)Gourette, France (7775): visibility: 12.02.2020 09:00:00 - 18.02.2020 09:00:00 (CET)Gourette, France (7775): Quantités de précipitations: 12.02.2020 09:00:00 - 18.02.2020 09:00:00 (CET)
Date & Time tt [°C] td [°C] ff [km/h] ff [knt] fx [km/h] fx [knt] dd ppp [hPa] vv [km] rr [mm]
18.02.2020 09:00:00 - - - - - - - - - -
18.02.2020 08:00:00 - - - - - - - - - -
18.02.2020 07:00:00 - - - - - - - - - -
18.02.2020 06:00:00 - - - - - - - - - -
18.02.2020 05:00:00 - - - - - - - - - -
18.02.2020 04:00:00 - - - - - - - - - -
18.02.2020 03:00:00 - - - - - - - - - -
18.02.2020 02:00:00 - - - - - - - - - -
18.02.2020 01:00:00 - - - - - - - - - -
18.02.2020 00:00:00 - - - - - - - - - -
17.02.2020 23:00:00 11,1 8,3 10 5 16 9 N 1025,5 - 0,0
17.02.2020 22:00:00 10,9 8,5 13 7 18 10 N 1025,6 - 0,0
17.02.2020 21:00:00 11,0 8,9 12 7 19 10 N 1025,6 - 0,0
17.02.2020 20:00:00 11,4 9,6 13 7 16 9 N 1025,5 - 0,0
17.02.2020 19:00:00 12,5 10,2 7 4 9 5 NNE 1025,5 18 0,0
17.02.2020 18:00:00 13,0 10,5 5 3 11 6 ENE 1025,2 - 0,0
17.02.2020 17:00:00 13,9 10,5 8 4 14 8 NE 1025,2 - 0,0
17.02.2020 16:00:00 14,3 10,3 6 4 11 6 NE 1025,5 - 0,0
17.02.2020 15:00:00 14,1 10,3 5 3 14 8 SE 1025,8 - 0,0
17.02.2020 14:00:00 14,1 9,9 7 4 19 11 ESE 1026,1 - 0,0
17.02.2020 13:00:00 15,5 10,9 9 5 17 9 E 1026,7 18 0,0
17.02.2020 12:00:00 15,2 10,2 10 6 19 10 E 1027,4 - 0,0
17.02.2020 11:00:00 15,7 10,2 6 4 13 7 SSE 1027,8 - 0,0
17.02.2020 10:00:00 15,2 9,8 5 3 9 5 SSE 1028,1 - 0,0
17.02.2020 09:00:00 12,7 8,2 7 4 9 5 SSW 1028,2 - 0,0
17.02.2020 08:00:00 10,9 7,8 6 3 10 6 SW 1028,2 - 0,0
17.02.2020 07:00:00 10,6 7,5 8 4 9 5 SW 1027,9 15 0,0
17.02.2020 06:00:00 10,9 7,9 5 3 8 5 SSW 1028,4 - 0,0
17.02.2020 05:00:00 11,1 8,3 0 0 5 3 N 1028,5 - 0,0
17.02.2020 04:00:00 10,1 7,0 4 2 16 9 N 1028,5 - 0,0
17.02.2020 03:00:00 9,7 6,8 13 7 16 9 NNW 1028,8 - 0,0
17.02.2020 02:00:00 11,3 7,6 4 2 8 5 NNW 1028,9 - 0,0
17.02.2020 01:00:00 10,0 8,3 8 5 15 8 SW 1029,2 - 0,0
17.02.2020 00:00:00 10,2 8,6 3 1 9 5 E 1029,2 - 0,0
16.02.2020 23:00:00 10,6 9,4 9 5 16 8 SW 1029,5 - 0,0
16.02.2020 22:00:00 11,7 9,8 13 7 22 12 S 1029,7 - 0,0
16.02.2020 21:00:00 11,9 9,6 18 10 23 12 SSW 1029,7 - 0,0
16.02.2020 20:00:00 12,2 9,8 14 7 17 9 SSW 1029,7 - 0,0
16.02.2020 19:00:00 12,6 9,8 7 4 9 5 SW 1029,9 18 0,0
16.02.2020 18:00:00 13,2 9,4 2 1 6 3 SSE 1029,4 - 0,0
16.02.2020 17:00:00 13,5 9,3 2 1 10 6 SE 1029,0 - 0,0
16.02.2020 16:00:00 13,9 9,3 8 4 13 7 NE 1029,1 18 0,0
16.02.2020 15:00:00 14,2 9,4 8 5 16 9 ENE 1029,4 - 0,0
16.02.2020 14:00:00 13,9 9,3 9 5 18 10 ENE 1029,5 - 0,0
16.02.2020 13:00:00 15,9 9,8 10 6 24 13 ENE 1029,7 18 0,0
16.02.2020 12:00:00 16,2 10,1 18 10 27 14 NE 1030,7 - 0,0
16.02.2020 11:00:00 15,8 9,7 15 8 22 12 NE 1030,7 - 0,0
16.02.2020 10:00:00 15,4 10,0 9 5 16 8 N 1030,2 18 0,0
16.02.2020 09:00:00 13,3 8,8 7 4 11 6 NW 1029,6 - 0,0
16.02.2020 08:00:00 11,1 7,6 10 5 14 8 W 1029,2 - 0,0
16.02.2020 07:00:00 10,2 5,8 12 7 14 7 WSW 1028,8 15 0,0
16.02.2020 06:00:00 11,0 7,1 12 6 16 8 NNW 1029,4 - 0,0
16.02.2020 05:00:00 10,5 6,8 10 6 22 12 N 1029,6 - 0,0
16.02.2020 04:00:00 10,8 6,2 14 8 18 10 NNW 1029,0 - 0,0
16.02.2020 03:00:00 11,9 7,2 6 3 17 9 NW 1028,2 - 0,0
16.02.2020 02:00:00 10,3 2,6 15 8 18 10 NNW 1028,7 - 0,0
16.02.2020 01:00:00 10,7 4,8 10 5 18 10 NNW 1028,6 - 0,0
16.02.2020 00:00:00 9,8 5,2 15 8 24 13 N 1028,7 - 0,0
15.02.2020 23:00:00 10,9 4,4 20 11 24 13 NNW 1028,7 - 0,0
15.02.2020 22:00:00 11,3 2,8 15 8 20 11 N 1028,4 - 0,0
15.02.2020 21:00:00 12,3 2,2 8 4 11 6 NNE 1028,1 - 0,0
15.02.2020 20:00:00 12,2 5,4 4 2 11 6 SW 1027,8 - 0,0
15.02.2020 19:00:00 11,9 7,0 9 5 10 6 SW 1027,9 - 0,0
15.02.2020 18:00:00 12,6 8,7 7 4 9 5 SSW 1027,1 - 0,0
15.02.2020 17:00:00 14,6 9,0 4 2 8 4 ESE 1026,9 - 0,0
15.02.2020 16:00:00 16,2 8,4 5 3 13 7 ENE 1027,0 - 0,0
15.02.2020 15:00:00 15,9 9,3 9 5 16 9 E 1026,7 - 0,0
15.02.2020 14:00:00 16,2 8,2 9 5 18 10 ENE 1026,5 - 0,0
15.02.2020 13:00:00 17,0 6,8 11 6 16 9 ENE 1027,0 25 0,0
15.02.2020 12:00:00 16,7 7,3 9 5 14 8 ENE 1027,5 - 0,0
15.02.2020 11:00:00 16,8 6,9 10 5 16 9 NE 1027,6 - 0,0
15.02.2020 10:00:00 16,3 8,0 6 4 11 6 NNE 1027,3 - 0,0
15.02.2020 09:00:00 13,5 5,6 7 4 18 10 NNW 1027,2 - 0,0
15.02.2020 08:00:00 11,3 4,3 13 7 18 10 NNW 1026,6 - 0,0
15.02.2020 07:00:00 10,7 4,4 15 8 18 10 NNW 1026,2 - 0,0
15.02.2020 06:00:00 11,2 5,3 15 8 16 9 NNW 1025,8 - 0,0
15.02.2020 05:00:00 12,0 7,3 10 6 16 9 NW 1025,3 - 0,0
15.02.2020 04:00:00 11,5 7,6 14 8 18 10 NW 1025,3 - 0,0
15.02.2020 03:00:00 11,2 8,2 16 8 19 10 NNW 1025,1 - 0,0
15.02.2020 02:00:00 10,5 8,3 12 6 20 11 NW 1025,1 - 0,0
15.02.2020 01:00:00 10,7 7,4 17 9 26 14 N 1024,8 - 0,0
15.02.2020 00:00:00 10,7 5,0 17 9 24 13 N 1024,5 - 0,0
14.02.2020 23:00:00 12,3 2,4 14 8 16 9 NNW 1023,9 - 0,0
14.02.2020 22:00:00 13,1 5,3 6 3 9 5 NNW 1023,5 - 0,0
14.02.2020 21:00:00 13,4 9,6 2 1 5 3 W 1022,9 - 0,0
14.02.2020 20:00:00 13,0 7,7 6 3 11 6 ESE 1022,4 - 0,0
14.02.2020 19:00:00 13,1 6,7 11 6 16 9 W 1021,4 - 0,0
14.02.2020 18:00:00 13,7 9,3 9 5 17 9 S 1020,5 - 0,0
14.02.2020 17:00:00 15,1 8,8 13 7 26 14 SSE 1019,8 - 0,0
14.02.2020 16:00:00 16,6 9,0 18 10 29 16 SSE 1019,1 - 0,0
14.02.2020 15:00:00 17,2 9,6 17 9 31 17 S 1019,0 - 0,0
14.02.2020 14:00:00 17,0 9,7 23 13 33 18 SSE 1018,7 - 0,0
14.02.2020 13:00:00 17,4 10,0 20 11 38 20 SSE 1018,4 - 0,0
14.02.2020 12:00:00 19,0 7,4 18 10 27 14 S 1018,1 - 0,0
14.02.2020 11:00:00 18,7 8,9 16 9 34 19 SSW 1017,6 - 0,0
14.02.2020 10:00:00 17,4 8,0 22 12 39 21 SSW 1016,5 20 0,0
14.02.2020 09:00:00 15,4 4,4 26 14 41 22 SSW 1015,4 - 0,0
14.02.2020 08:00:00 12,4 8,1 21 11 39 21 SSW 1014,5 - 0,0
14.02.2020 07:00:00 13,0 8,1 13 7 34 18 SSE 1014,0 15 0,0
14.02.2020 06:00:00 13,0 8,7 20 11 49 26 N 1013,8 - 0,0
14.02.2020 05:00:00 16,6 2,9 37 20 61 33 W 1012,7 - 0,0
14.02.2020 04:00:00 11,7 6,6 29 16 37 20 SSW 1012,8 15 0,0
14.02.2020 03:00:00 12,0 7,1 20 11 30 16 SSW 1014,9 - 0,0
14.02.2020 02:00:00 10,3 7,2 22 12 26 14 SSW 1015,9 - 0,0
14.02.2020 01:00:00 10,2 7,8 23 12 36 20 SSW 1016,6 - 0,0
14.02.2020 00:00:00 9,2 7,5 26 14 34 19 SSW 1017,0 - 0,0
13.02.2020 23:00:00 8,6 7,1 21 11 27 14 SSW 1018,3 - 0,0
13.02.2020 22:00:00 10,9 8,3 19 11 23 12 SSW 1019,3 - 0,0
13.02.2020 21:00:00 9,8 7,6 19 11 22 12 SW 1019,7 - 0,0
13.02.2020 20:00:00 10,9 8,3 11 6 11 6 SW 1020,3 - 0,0
13.02.2020 19:00:00 11,8 8,8 6 3 7 4 W 1020,5 17 0,0
13.02.2020 18:00:00 12,4 9,0 3 2 16 8 NE 1020,0 - 0,0
13.02.2020 17:00:00 13,9 9,1 10 5 21 11 NNE 1020,3 - 0,0
13.02.2020 16:00:00 15,1 9,9 15 8 21 12 NE 1020,2 17 0,0
13.02.2020 15:00:00 15,3 9,6 14 8 24 13 NE 1020,4 - 0,0
13.02.2020 14:00:00 15,5 9,4 14 8 23 12 NE 1021,0 - 0,0
13.02.2020 13:00:00 15,6 7,6 13 7 22 12 E 1021,4 17 0,0
13.02.2020 12:00:00 16,2 7,4 12 7 25 14 SE 1021,7 - 0,0
13.02.2020 11:00:00 16,0 8,0 10 5 19 11 S 1021,7 - 0,0
13.02.2020 10:00:00 14,9 8,4 6 3 12 7 S 1022,0 - 0,0
13.02.2020 09:00:00 12,2 8,3 12 6 16 8 WSW 1021,8 - 0,0
13.02.2020 08:00:00 10,4 7,6 11 6 14 8 WSW 1021,5 - 0,0
13.02.2020 07:00:00 11,2 7,5 8 4 13 7 W 1021,5 15 0,0
13.02.2020 06:00:00 11,5 7,4 9 5 17 9 W 1021,5 - 0,0
13.02.2020 05:00:00 10,3 7,2 13 7 14 8 WSW 1020,9 - 0,0
13.02.2020 04:00:00 11,1 7,6 6 4 14 7 SW 1020,8 - 0,0
13.02.2020 03:00:00 10,5 7,4 13 7 17 9 SW 1021,0 - 0,0
13.02.2020 02:00:00 10,1 6,4 13 7 15 8 SW 1021,0 - 0,0
13.02.2020 01:00:00 11,1 6,6 10 5 16 9 S 1021,1 - 0,0
13.02.2020 00:00:00 11,4 5,7 10 6 15 8 SW 1021,0 - 0,0
12.02.2020 23:00:00 11,0 5,7 14 8 16 9 SW 1021,2 - 0,0
12.02.2020 22:00:00 11,8 5,6 10 5 11 6 SW 1021,1 - 0,0
12.02.2020 21:00:00 12,2 5,6 6 3 9 5 SSW 1021,1 - 0,0
12.02.2020 20:00:00 12,4 6,9 6 3 7 4 WSW 1020,6 - 0,0
12.02.2020 19:00:00 13,1 9,0 0 0 7 4 N 1020,4 - 0,0
12.02.2020 18:00:00 13,5 8,8 3 1 11 6 N 1019,8 - 0,0
12.02.2020 17:00:00 15,0 8,7 6 3 11 6 NNE 1019,3 - 0,0
12.02.2020 16:00:00 15,6 8,6 7 4 17 9 E 1018,8 12 0,0
12.02.2020 15:00:00 16,8 8,5 10 5 19 10 E 1018,7 - 0,0
12.02.2020 14:00:00 16,9 8,6 11 6 22 12 ESE 1018,8 - 0,0
12.02.2020 13:00:00 17,5 8,4 11 6 26 14 SSE 1019,1 12 0,0
12.02.2020 12:00:00 17,9 9,0 13 7 33 18 SSE 1019,8 - 0,0
12.02.2020 11:00:00 17,5 9,1 16 9 35 19 S 1019,5 - 0,0
12.02.2020 10:00:00 16,5 9,4 17 9 29 16 SSW 1019,2 - 0,0
12.02.2020 09:00:00 14,3 9,5 19 10 25 14 SW 1018,8 - 0,0

tt = Température de l'air
td = dewpoint
ff = Vitesse du vent
fx = gusts
dd = Direction du vent
ppp = reduced air pressure
vv = visibility
rr = Quantités de précipitations

stations d'obs. à proximité